Weather Roundup
Issued by NWS

Home | Current Version | Previous Version | Graphics & Text | Print | Product List | Glossary Off
Versions: 1 2 3 4 5 6 7 8 9 10 11 12 13 14 15 16 17 18 19 20 21 22 23 24 25 26 27 28 29 30 31 32 33 34 35 36 37 38 39 40 41 42 43 44 45 46 47 48 49 50

963
NZUS93 KARX 280110
HRRWXR

CURRENT HOURLY OBSERVATIONS ACROSS
MUCH OF THE UPPER MISSISSIPPI VALLEY
NATIONAL WEATHER SERVICE LA CROSSE WI
800 PM CDT WED APR 27 2016


...SOUTHEAST MINNESOTA...


CITY           SKY/WX    TMP DP  RH WIND       PRES   REMARKS
ROCHESTER      CLOUDY    41  38  89 E21G31    29.80F
ROCHESTER/MAYO CLOUDY    42  37  80 E15G26    29.81F
WINONA         DRIZZLE   43  41  93 E9        29.86F
AUSTIN         CLOUDY    43  37  81 E18G25    29.77R
ALBERT LEA     CLOUDY    45  39  81 E14G26    29.77R
DODGE CENTER   CLOUDY    39  39 100 E30G37    29.78F WCI  27
PRESTON        CLOUDY    41  36  82 E16G24    29.80S
OWATONNA       CLOUDY    43  37  81 E26G36    29.79S
FARIBAULT      CLOUDY    43  41  93 NE17G26   29.81F
$$

...ELSEWHERE IN MINNESOTA...


CITY           SKY/WX    TMP DP  RH WIND       PRES   REMARKS
MINNEAPOLIS    CLOUDY    45  38  76 E14       29.87S
INTNL FALLS    CLOUDY    50  17  27 NE7       30.03S
DULUTH         CLOUDY    39  11  31 E15       30.02R WCI  31
RED WING       DRIZZLE   43  37  81 E12G20    29.86F
REDWOOD FALLS  LGT RAIN  42  39  89 E12G21    29.80S FOG
MANKATO        CLOUDY    45  37  76 E18G29    29.79R
WORTHINGTON    LGT RAIN  40  39  97 NE20G29   29.72S FOG     WCI  30
FAIRMONT       CLOUDY    45  34  65 E20       29.74R
$$

...SOUTHWEST WISCONSIN...


CITY           SKY/WX    TMP DP  RH WIND       PRES   REMARKS
LA CROSSE      CLOUDY    45  36  70 E5        29.86F
PRAIRIE DU CHI CLOUDY    46  33  62 E16G23    29.80S
BOSCOBEL       CLOUDY    46  36  68 NE8G18    29.83F
LONE ROCK      CLOUDY    44  36  73 E15       29.84F
PLATTEVILLE    CLOUDY    44  38  79 E24G30    29.78F
FORT MC COY    CLOUDY    43  36  77 NE10G16   29.87F
CAMP DOUGLAS   CLOUDY    41  41 100 NE5       29.87S
MAUSTON-NEW LI CLOUDY    42  35  75 E5        29.87F
VIROQUA        CLOUDY    41  37  84 E16G25    29.82F
WIS DELLS      CLOUDY    41  31  66 E12G18    29.86F
$$

...ELSEWHERE IN WISCONSIN...


CITY           SKY/WX    TMP DP  RH WIND       PRES   REMARKS
MILWAUKEE      LGT RAIN  41  33  73 N16       29.91R
MADISON        CLOUDY    43  34  70 E12       29.86S
GREEN BAY      CLOUDY    45  25  45 NE18      29.94F
EAU CLAIRE     LGT RAIN  43  36  76 SE3       29.90S
BLACK RVR FLS  LGT RAIN  42  35  78 NE9       29.87F
MEDFORD        CLOUDY    46  25  43 E7        29.93R
WAUSAU         CLOUDY    48  23  37 E12       29.93S
WIS RAPIDS     LGT RAIN  46  13  26 E13G23    29.91F
MARSHFIELD     CLOUDY    47  12  24 E15       29.90F
RICE LAKE      CLOUDY    53  22  30 E9        29.92S
$$

...NORTHEAST IOWA...


CITY           SKY/WX    TMP DP  RH WIND       PRES   REMARKS
WATERLOO       CLOUDY    45  37  73 E23G33    29.72S
DUBUQUE        CLOUDY    44  38  79 E17G23    29.78R
DECORAH        CLOUDY    43  36  75 E24G30    29.78R
MASON CITY     CLOUDY    43  37  79 E17G25    29.76R
CHARLES CITY   CLOUDY    45  39  81 E24       29.75S
OELWEIN        CLOUDY    45  39  81 E17G25    29.75R
$$

...ELSEWHERE IN IOWA...


CITY           SKY/WX    TMP DP  RH WIND       PRES   REMARKS
DES MOINES     TSTM      50  46  86 E10       29.64F FOG
IOWA CITY      CLOUDY    47  46  97 E17G24    29.70F FOG
FORT DODGE     CLOUDY    45  39  81 E24G35    29.64F
MARSHALLTOWN   CLOUDY    47  45  93 E30G37    29.66S FOG
CEDAR RAPIDS   CLOUDY    46  46 100 E23G30    29.69S FOG
$$

...NORTHERN ILLINOIS...


CITY           SKY/WX    TMP DP  RH WIND       PRES   REMARKS
CHICAGO-OHARE  CLOUDY    43  39  86 NE15      29.82F
CHICAGO-MIDWAY LGT RAIN  45  41  86 N9        29.82F
MOLINE         CLOUDY    50  45  83 E20       29.74R
ROCKFORD       CLOUDY    45  38  76 E12       29.83S
PEORIA         CLOUDY    54  49  83 E14G23    29.71F
$$

NOTE: "FAIR" INDICATES FEW OR NO CLOUDS BELOW 12,000 FEET WITH NO
SIGNIFICANT WEATHER AND/OR OBSTRUCTIONS TO VISIBILITY. WIND
SPEEDS ARE IN MILES-PER-HOUR.




USA.gov is the U.S. government's official web portal to all federal, state and local government web resources and services.